When you browse on this site, cookies collect data to enhance your experience and personalize the content and advertising you see.
Visit our Privacy Policy to learn more. By continuing to use the site, you agree to this use of cookies and data.
  • Em Portugal
  • Lista de países
  • Para 7 dias
  • Temperatura da água
  • Mapa do tempo
  • Widgets de tempo
  • user-avatar
    Iniciar Sessão

    Previsão horária em Brest

    Hoje, 1 Junho, Segunda-feira

    Tempo Temperatura Precipitação Vento Pressão Humidade
    00:00 +11°C° 0 mm 4 m/s 749 mmHg 87%
    01:00 +10°C° 0 mm 4 m/s 749 mmHg 86%
    02:00 +10°C° 0 mm 4 m/s 749 mmHg 89%
    03:00 +8°C° 0 mm 4 m/s 749 mmHg 88%
    04:00 +8°C° 0 mm 4 m/s 749 mmHg 88%
    05:00 +7°C° 0 mm 4 m/s 749 mmHg 87%
    06:00 +8°C° 0 mm 4 m/s 749 mmHg 82%
    07:00 +10°C° 0 mm 5 m/s 750 mmHg 77%
    08:00 +12°C° 0 mm 5 m/s 750 mmHg 72%
    09:00 +13°C° 0 mm 6 m/s 750 mmHg 67%
    10:00 +13°C° 0 mm 6 m/s 750 mmHg 62%
    11:00 +14°C° 0 mm 7 m/s 750 mmHg 57%
    12:00 +14°C° 0.1 mm 7 m/s 750 mmHg 57%
    13:00 +14°C° 0.1 mm 7 m/s 750 mmHg 57%
    14:00 +14°C° 0 mm 6 m/s 750 mmHg 59%
    15:00 +14°C° 0 mm 6 m/s 750 mmHg 59%
    16:00 +14°C° 0 mm 6 m/s 750 mmHg 59%
    17:00 +13°C° 0 mm 6 m/s 750 mmHg 58%
    18:00 +12°C° 0 mm 5 m/s 750 mmHg 64%
    19:00 +11°C° 0 mm 4 m/s 749 mmHg 69%
    20:00 +10°C° 0 mm 3 m/s 749 mmHg 74%
    21:00 +10°C° 0 mm 3 m/s 749 mmHg 75%
    22:00 +9°C° 0 mm 3 m/s 749 mmHg 76%
    23:00 +8°C° 0 mm 2 m/s 749 mmHg 77%

    Amanhã, 2 Junho, Terça-feira

    Tempo Temperatura Precipitação Vento Pressão Humidade
    00:00 +7°C° 0 mm 3 m/s 748 mmHg 79%
    01:00 +7°C° 0 mm 3 m/s 748 mmHg 80%
    02:00 +7°C° 0 mm 3 m/s 748 mmHg 82%
    03:00 +7°C° 0 mm 3 m/s 747 mmHg 82%
    04:00 +6°C° 0 mm 4 m/s 747 mmHg 82%
    05:00 +5°C° 0 mm 4 m/s 746 mmHg 82%
    06:00 +7°C° 0 mm 5 m/s 746 mmHg 78%
    07:00 +8°C° 0 mm 6 m/s 746 mmHg 74%
    08:00 +10°C° 0 mm 7 m/s 746 mmHg 70%
    09:00 +10°C° 0.1 mm 7 m/s 746 mmHg 72%
    10:00 +10°C° 0.1 mm 7 m/s 745 mmHg 74%
    11:00 +10°C° 0.1 mm 6 m/s 745 mmHg 76%
    12:00 +10°C° 0.2 mm 6 m/s 745 mmHg 78%
    13:00 +10°C° 0.2 mm 6 m/s 745 mmHg 80%
    14:00 +9°C° 0.2 mm 7 m/s 744 mmHg 82%
    15:00 +10°C° 0.1 mm 6 m/s 744 mmHg 82%
    16:00 +10°C° 0.1 mm 5 m/s 744 mmHg 82%
    17:00 +11°C° 0.1 mm 4 m/s 743 mmHg 82%
    18:00 +11°C° 0.2 mm 4 m/s 743 mmHg 83%
    19:00 +10°C° 0.2 mm 4 m/s 743 mmHg 85%
    20:00 +9°C° 0.2 mm 5 m/s 743 mmHg 86%
    21:00 +9°C° 0.1 mm 5 m/s 743 mmHg 87%
    22:00 +8°C° 0.1 mm 5 m/s 742 mmHg 88%
    23:00 +8°C° 0.1 mm 5 m/s 742 mmHg 89%

    Depois de amanhã, 3 Junho, Quarta-feira

    Tempo Temperatura Precipitação Vento Pressão Humidade
    00:00 +8°C° 0.2 mm 4 m/s 742 mmHg 91%
    01:00 +8°C° 0.2 mm 4 m/s 742 mmHg 92%
    02:00 +8°C° 0.2 mm 4 m/s 742 mmHg 93%
    03:00 +8°C° 0.1 mm 4 m/s 742 mmHg 93%
    04:00 +8°C° 0.1 mm 4 m/s 741 mmHg 93%
    05:00 +9°C° 0.1 mm 3 m/s 741 mmHg 93%
    06:00 +9°C° 0.1 mm 3 m/s 741 mmHg 89%
    07:00 +10°C° 0.1 mm 4 m/s 741 mmHg 85%
    08:00 +11°C° 0.1 mm 4 m/s 741 mmHg 82%
    09:00 +12°C° 0.4 mm 4 m/s 741 mmHg 79%
    10:00 +12°C° 0.4 mm 4 m/s 741 mmHg 77%
    11:00 +13°C° 0.4 mm 4 m/s 741 mmHg 75%
    12:00 +14°C° 0.9 mm 4 m/s 741 mmHg 74%
    13:00 +14°C° 0.9 mm 4 m/s 741 mmHg 74%
    14:00 +15°C° 0.9 mm 5 m/s 741 mmHg 73%
    15:00 +14°C° 0.9 mm 4 m/s 740 mmHg 74%
    16:00 +14°C° 0.9 mm 4 m/s 740 mmHg 75%
    17:00 +14°C° 0.9 mm 3 m/s 739 mmHg 76%
    18:00 +13°C° 0.5 mm 3 m/s 739 mmHg 80%
    19:00 +13°C° 0.5 mm 2 m/s 739 mmHg 84%
    20:00 +12°C° 0.5 mm 1 m/s 739 mmHg 88%
    21:00 +11°C° 0 mm 1 m/s 739 mmHg 90%
    22:00 +10°C° 0 mm 1 m/s 739 mmHg 92%
    23:00 +9°C° 0 mm 1 m/s 739 mmHg 94%

    4 Junho, Quinta-feira

    Tempo Temperatura Precipitação Vento Pressão Humidade
    00:00 +9°C° 0 mm 1 m/s 739 mmHg 95%
    01:00 +8°C° 0 mm 1 m/s 739 mmHg 95%
    02:00 +7°C° 0 mm 2 m/s 739 mmHg 96%
    03:00 +7°C° 0 mm 2 m/s 738 mmHg 96%
    04:00 +7°C° 0 mm 2 m/s 738 mmHg 97%
    05:00 +7°C° 0 mm 2 m/s 738 mmHg 97%
    06:00 +8°C° 0 mm 2 m/s 738 mmHg 93%
    07:00 +10°C° 0 mm 2 m/s 738 mmHg 90%
    08:00 +11°C° 0 mm 3 m/s 738 mmHg 86%
    09:00 +12°C° 0.4 mm 3 m/s 738 mmHg 84%
    10:00 +13°C° 0.4 mm 3 m/s 738 mmHg 82%
    11:00 +14°C° 0.4 mm 3 m/s 738 mmHg 80%
    12:00 +16°C° 0.5 mm 3 m/s 738 mmHg 76%
    13:00 +17°C° 0.5 mm 3 m/s 738 mmHg 72%
    14:00 +18°C° 0.5 mm 4 m/s 738 mmHg 68%
    15:00 +18°C° 0.4 mm 4 m/s 738 mmHg 69%
    16:00 +18°C° 0.4 mm 3 m/s 737 mmHg 69%
    17:00 +18°C° 0.4 mm 3 m/s 737 mmHg 70%
    18:00 +17°C° 0.1 mm 2 m/s 737 mmHg 74%
    19:00 +16°C° 0.1 mm 2 m/s 737 mmHg 79%
    20:00 +15°C° 0.1 mm 1 m/s 737 mmHg 83%
    21:00 +14°C° 0 mm 1 m/s 737 mmHg 85%
    22:00 +13°C° 0 mm 1 m/s 737 mmHg 86%
    23:00 +12°C° 0 mm 1 m/s 738 mmHg 88%

    5 Junho, Sexta-feira

    Tempo Temperatura Precipitação Vento Pressão Humidade
    00:00 +12°C° 0 mm 1 m/s 737 mmHg 89%
    01:00 +11°C° 0 mm 1 m/s 737 mmHg 90%
    02:00 +10°C° 0 mm 2 m/s 737 mmHg 91%
    03:00 +10°C° 0 mm 2 m/s 737 mmHg 91%
    04:00 +10°C° 0 mm 2 m/s 737 mmHg 92%
    05:00 +10°C° 0 mm 3 m/s 737 mmHg 92%
    06:00 +12°C° 0 mm 3 m/s 737 mmHg 89%
    07:00 +13°C° 0 mm 4 m/s 737 mmHg 86%
    08:00 +15°C° 0 mm 5 m/s 737 mmHg 83%
    09:00 +17°C° 0.1 mm 5 m/s 737 mmHg 81%
    10:00 +19°C° 0.1 mm 5 m/s 737 mmHg 80%
    11:00 +20°C° 0.1 mm 5 m/s 737 mmHg 78%
    12:00 +21°C° 0.7 mm 5 m/s 737 mmHg 78%
    13:00 +21°C° 0.7 mm 5 m/s 737 mmHg 77%
    14:00 +21°C° 0.7 mm 5 m/s 737 mmHg 76%
    15:00 +21°C° 0.4 mm 5 m/s 736 mmHg 76%
    16:00 +22°C° 0.4 mm 5 m/s 736 mmHg 76%
    17:00 +22°C° 0.4 mm 5 m/s 736 mmHg 76%
    18:00 +21°C° 0.8 mm 5 m/s 736 mmHg 80%
    19:00 +20°C° 0.8 mm 4 m/s 736 mmHg 84%
    20:00 +19°C° 0.8 mm 4 m/s 736 mmHg 87%
    21:00 +18°C° 0.3 mm 4 m/s 736 mmHg 89%
    22:00 +17°C° 0.3 mm 4 m/s 736 mmHg 91%
    23:00 +16°C° 0.3 mm 3 m/s 736 mmHg 92%

    6 Junho, Sábado

    Tempo Temperatura Precipitação Vento Pressão Humidade
    00:00 +16°C° 0 mm 3 m/s 736 mmHg 92%
    01:00 +16°C° 0 mm 3 m/s 736 mmHg 92%
    02:00 +16°C° 0 mm 3 m/s 736 mmHg 92%
    03:00 +16°C° 0.3 mm 3 m/s 736 mmHg 93%
    04:00 +14°C° 0.3 mm 3 m/s 737 mmHg 95%
    05:00 +15°C° 0.3 mm 2 m/s 737 mmHg 96%
    06:00 +14°C° 0.9 mm 3 m/s 737 mmHg 96%
    07:00 +14°C° 0.9 mm 3 m/s 737 mmHg 96%
    08:00 +14°C° 0.9 mm 3 m/s 737 mmHg 97%
    09:00 +13°C° 1 mm 4 m/s 738 mmHg 95%
    10:00 +12°C° 1 mm 5 m/s 738 mmHg 94%
    11:00 +11°C° 1 mm 6 m/s 739 mmHg 93%
    12:00 +11°C° 0.1 mm 6 m/s 739 mmHg 90%
    13:00 +13°C° 0.1 mm 6 m/s 739 mmHg 87%
    14:00 +14°C° 0.1 mm 6 m/s 740 mmHg 84%
    15:00 +14°C° 0 mm 6 m/s 740 mmHg 80%
    16:00 +15°C° 0 mm 6 m/s 740 mmHg 76%
    17:00 +15°C° 0 mm 5 m/s 741 mmHg 72%
    18:00 +14°C° 0 mm 4 m/s 741 mmHg 76%
    19:00 +13°C° 0 mm 3 m/s 741 mmHg 80%
    20:00 +14°C° 0 mm 2 m/s 742 mmHg 83%
    21:00 +13°C° 0 mm 1 m/s 742 mmHg 85%
    22:00 +12°C° 0 mm 1 m/s 742 mmHg 87%
    23:00 +10°C° 0 mm 1 m/s 743 mmHg 89%
    Mostrar mais